Regional Weather Roundup
Issued by NWS

Home | Current Version | Previous Version | Graphics & Text | Print | Product List | Glossary On
Versions: 1 2 3 4 5 6 7 8 9 10 11 12 13 14 15 16 17 18 19 20 21 22 23 24 25 26 27 28 29 30 31 32 33 34 35 36 37 38 39 40 41 42 43 44 45 46 47 48 49 50
000
ASUS43 KOAX 310310
RWRNE

WEATHER ROUNDUP FOR NEBRASKA
NATIONAL WEATHER SERVICE OMAHA NE
900 PM CST FRI JAN 30 2015

NOTES: SATELLITE DATA IS BEING USED TO AUGMENT CLOUD COVER ABOVE
       12000 FEET.
       "FAIR" INDICATES FEW OR NO CLOUDS BELOW 12,000 FEET WITH NO
       SIGNIFICANT WEATHER AND/OR OBSTRUCTIONS TO VISIBILITY.

  * THESE STATIONS DO NOT REPORT WEATHER SUCH AS RAIN...SNOW OR FOG.

NEZ001>004-019>022-054>056-310400-
NEBRASKA PANHANDLE

CITY           SKY/WX    TMP DP  RH WIND       PRES   REMARKS
SCOTTSBLUFF    CLOUDY    33  28  81 N7        30.09F WCI  27
ALLIANCE       CLOUDY    32  27  81 N7        30.08F WCI  26
CHADRON        CLOUDY    31  25  78 W3        30.13S
KIMBALL        CLOUDY    35  27  74 N7        30.05F WCI  29
SIDNEY         CLOUDY    36  26  67 N8        30.07F WCI  30
$$

NEZ057>060-069>072-079>082-310400-
SOUTHWEST NEBRASKA

CITY           SKY/WX    TMP DP  RH WIND       PRES   REMARKS
NORTH PLATTE   CLOUDY    39  29  67 S9        30.14F WCI  33
IMPERIAL       CLOUDY    39  31  72 S16       30.11F WCI  30
LEXINGTON      CLOUDY    41  32  70 S20       30.20S
MCCOOK         CLOUDY    39  34  82 S8G17     30.19F WCI  33
OGALLALA       CLOUDY    39  31  73 CALM      30.10F
$$

NEZ005>010-023>029-035>040-094-310400-
NORTH CENTRAL NEBRASKA

CITY           SKY/WX    TMP DP  RH WIND       PRES   REMARKS
VALENTINE      CLOUDY    33  27  78 S6        30.13F WCI  28
AINSWORTH      CLOUDY    36  27  71 S8        30.13S WCI  29
BROKEN BOW     CLOUDY    39  28  64 S6        30.16F WCI  35
O`NEILL        CLOUDY    36  28  71 S6        30.16F WCI  32
ORD            CLOUDY    39  26  59 S9        30.17F WCI  33
THEDFORD       CLOUDY    38  29  71 S5        30.14S WCI  34
$$

NEZ041-046>049-061>064-073>077-083>087-310400-
SOUTH CENTRAL NEBRASKA

CITY           SKY/WX    TMP DP  RH WIND       PRES   REMARKS
GRAND ISLAND   CLOUDY    40  26  57 S13       30.23F WCI  32
AURORA         CLOUDY    40  26  59 S8        30.24S WCI  34
HASTINGS       CLOUDY    41  26  55 SW12G20   30.22F
HEBRON         CLOUDY    39  25  56 S9        30.27F WCI  33
HOLDREGE       CLOUDY    38  32  80 S15G23    30.22S WCI  29
KEARNEY *      CLOUDY    39  30  70 S18       30.21F WCI  30
YORK           CLOUDY    36  27  69 S7        30.25S WCI  30
$$

NEZ011>018-030>034-042>045-310400-
NORTHEAST NEBRASKA

CITY           SKY/WX    TMP DP  RH WIND       PRES   REMARKS
NORFOLK        CLOUDY    37  27  67 S12       30.20F WCI  29
ALBION         CLOUDY    36  25  65 S6        30.20F WCI  31
BLAIR          CLOUDY    36  25  66 S14       30.25F WCI  27
COLUMBUS *     CLOUDY    37  25  60 S10       30.25S WCI  30
FREMONT        CLOUDY    37  27  67 S8        30.26F WCI  30
TEKAMAH        MOCLDY    32  25  75 S10       30.26F WCI  24
WAYNE          MOCLDY    35  28  74 SW10      30.21S WCI  27
$$

NEZ050>053-065>068-078-088>093-310400-
SOUTHEAST NEBRASKA

CITY           SKY/WX    TMP DP  RH WIND       PRES   REMARKS
LINCOLN        CLOUDY    36  25  64 S8        30.29S WCI  30
OMAHA EPPLEY   CLOUDY    33  25  72 SE9       30.29S WCI  25
BEATRICE       CLOUDY    35  25  67 S7        30.30S WCI  29
FALLS CITY     CLOUDY    31  21  66 S5        30.33F WCI  26
NEBRASKA CITY  CLOUDY    32  22  66 S8        30.31S WCI  25
PLATTSMOUTH    CLOUDY    34  24  67 S17G23    30.29F WCI  23
$$

NEZ044-045-051>053-067-310400-
OMAHA AREA

CITY           SKY/WX    TMP DP  RH WIND       PRES   REMARKS
OMAHA EPPLEY   CLOUDY    33  25  72 SE9       30.29S WCI  25
BLAIR          CLOUDY    36  25  66 S14       30.25F WCI  27
FREMONT        CLOUDY    37  27  67 S8        30.26F WCI  30
MILLARD        CLOUDY    34  25  70 SE3       30.29S
OFFUTT AFB     CLOUDY    32  25  74 SE6       30.29S WCI  27
PLATTSMOUTH    CLOUDY    34  24  67 S17G23    30.29F WCI  23
WAHOO          FAIR      32  24  73 S9        30.27S WCI  24
$$


USA.gov is the U.S. government's official web portal to all federal, state and local government web resources and services.